CZ-6A DEB, 54454

Orbit data source: Space-Track

CZ-6A DEB, 54454 is space debris in SSO originally from a launch on Fri, 11 Nov 2022 UTC launched from the Taiyaun Space Center, China (TSC). Debris objects in space refer to the collection of defunct objects orbiting the Earth. Examples of debris include non-operational satellites, rocket bodies, and fragments generated from explosions, collisions, or faulty payload assembly.

Loading next visibility...
Identifier
54454, 2022-151GE
Orbit
SSO
Country
Flag of CNCN / PRC
Related business
Manufacturer
SAST
Mission
Spacecraft
Bus & Motor
Unknown
Mass
Unknown
Launch date (UTC)
2022-11-11 (4 years ago)
Launch vehicle
Unknown
Launch site
Taiyaun Space Center, China (TSC)
Object type
Payload
Rocket body
Debris
Shape & HBR
Unknown shape, 0.1 m
Radar Cross Section
Medium (>0.1 m² and <1 m²)

Expand to show TLE details & history
Last TLE update: 14 hours ago

TLE from 14 hours ago
0 CZ-6A DEB
1 54454U 22151GE  26236.19653433  .00002079  00000-0  17954-2 0  9992
2 54454  98.8348 149.5118 0235042  25.7250 335.5375 13.75615141188901
Epoch: 2026-08-24T04:43Z
TLE epoch observation values (Epoch: 2026-08-24T04:43:00.566Z)
Latitude
-0.00003°
Longitude
106.27774°
Altitude
825.61 km
Speed
7.519 km/s
True Right ascension
09h 58m 02s
True Declination
0° 00' 00"
Sunlit
Object was in daylight at epoch
Visualization orbit readout
Latitude
Unknown
Longitude
Unknown
Altitude
Unknown
Speed
Unknown
Apparent Right ascension
Unknown
Apparent Declination
Unknown
Sunlit
N/A
Visualization observer readout
Local Sidereal Time
10:16:42
Azimuth
Unknown
Elevation
Unknown
Doppler factor
Unknown
Orbital elements
Apogee altitude
1,149.572 km
Perigee altitude
803.833 km
Semi-major axis
7,354.839 km
Eccentricity
0.0235
Inclination
98.8348°
RAAN
149.5118°
Arg. of periapsis
25.725°
True anomaly
334.39164°
Mean anomaly
335.5375°
Eccentric anomaly
334.96768°
Mean motion
3.44099 °/min
Orbital period
104.62 mins
BSTAR
0.0017954
Loading maneuver chart data...
Computing Atmospheric mass density...

Documentation

Showing up to 5 results
|